| time (UTC) | temp F | wind direction | speed knots | gust knots | rain 1hr in | rain 24hr in | rain mn in | humidity % | barometer mb |
| 20260504081806 | 52 | 154 | 0.9 | 1.7 | 0.00 | 0.00 | 0.00 | 68 | 1014.9 |
| 20260504081306 | 52 | 154 | 0.9 | 1.7 | 0.00 | 0.00 | 0.00 | 68 | 1014.8 |
| 20260504080736 | 52 | 159 | 0.9 | 1.7 | 0.00 | 0.00 | 0.00 | 68 | 1014.9 |
| 20260504080236 | 52 | 151 | 1.7 | 1.7 | 0.00 | 0.00 | 0.00 | 68 | 1015.0 |
| 20260504070336 | 53 | 147 | 1.7 | 1.7 | 0.00 | 0.00 | 0.00 | 63 | 1015.2 |
| 20260504060139 | 54 | 128 | 0.9 | 0.9 | 0.00 | 0.00 | 0.00 | 62 | 1015.8 |
| 20260504050510 | 55 | 160 | 1.7 | 2.6 | 0.00 | 0.00 | 0.00 | 59 | 1015.2 |
| 20260504050438 | 55 | 160 | 1.7 | 2.6 | 0.00 | 0.00 | 0.00 | 59 | 1015.2 |
| 20260504045936 | 55 | 159 | 1.7 | 2.6 | 0.00 | 0.00 | 0.00 | 59 | 1015.2 |
| 20260504045439 | 55 | 166 | 1.7 | 1.7 | 0.00 | 0.00 | 0.00 | 59 | 1015.2 |
| 20260504044936 | 55 | 165 | 1.7 | 1.7 | 0.00 | 0.00 | 0.00 | 59 | 1015.3 |
| 20260504044435 | 55 | 153 | 0.9 | 1.7 | 0.00 | 0.00 | 0.00 | 59 | 1015.6 |
| 20260504043908 | 55 | 158 | 0.9 | 1.7 | 0.00 | 0.00 | 0.00 | 59 | 1015.7 |
| 20260504043335 | 55 | 147 | 0.9 | 1.7 | 0.00 | 0.00 | 0.00 | 58 | 1015.9 |
| 20260504042835 | 55 | 154 | 0.9 | 1.7 | 0.00 | 0.00 | 0.00 | 58 | 1015.9 |
| 20260504042307 | 55 | 166 | 0.9 | 1.7 | 0.00 | 0.00 | 0.00 | 59 | 1015.9 |
| 20260504041736 | 55 | 155 | 0.9 | 1.7 | 0.00 | 0.00 | 0.00 | 58 | 1015.9 |
| 20260504041237 | 55 | 150 | 0.9 | 1.7 | 0.00 | 0.00 | 0.00 | 58 | 1016.2 |
| 20260504040707 | 55 | 145 | 0.9 | 1.7 | 0.00 | 0.00 | 0.00 | 57 | 1016.2 |
| 20260504040205 | 56 | 138 | 0.9 | 0.9 | 0.00 | 0.00 | 0.00 | 56 | 1016.3 |
| 20260504035705 | 56 | 141 | 0.9 | 1.7 | 0.00 | 0.00 | 0.00 | 55 | 1016.3 |
| 20260504035206 | 56 | 141 | 0.9 | 1.7 | 0.00 | 0.00 | 0.00 | 54 | 1015.9 |
| 20260504034107 | 57 | 140 | 0.9 | 1.7 | 0.00 | 0.00 | 0.00 | 52 | 1016.2 |
| 20260504033608 | 57 | 144 | 0.9 | 1.7 | 0.00 | 0.00 | 0.00 | 51 | 1015.9 |
| 20260504033035 | 57 | 149 | 0.9 | 1.7 | 0.00 | 0.00 | 0.00 | 51 | 1015.9 |
| 20260504032505 | 57 | 147 | 0.9 | 1.7 | 0.00 | 0.00 | 0.00 | 51 | 1016.2 |
| 20260504031936 | 57 | 174 | 1.7 | 2.6 | 0.00 | 0.00 | 0.00 | 51 | 1016.0 |
| 20260504031406 | 57 | 158 | 1.7 | 1.7 | 0.00 | 0.00 | 0.00 | 52 | 1016.3 |
| 20260504030835 | 58 | 163 | 0.9 | 1.7 | 0.00 | 0.00 | 0.00 | 51 | 1016.3 |
| 20260504030306 | 58 | 149 | 1.7 | 1.7 | 0.00 | 0.00 | 0.00 | 48 | 1016.3 |
| 20260504025807 | 59 | 149 | 0.9 | 1.7 | 0.00 | 0.00 | 0.00 | 48 | 1015.9 |
| 20260504025308 | 59 | 153 | 0.9 | 0.9 | 0.00 | 0.00 | 0.00 | 46 | 1016.2 |
| 20260504024814 | 0 | 163 | 0.9 | 1.7 | 0.00 | 0.00 | 0.00 | ||
| 20260504024805 | 59 | 163 | 0.9 | 1.7 | 0.00 | 0.00 | 0.00 | 45 | 1016.0 |
| 20260504024236 | 59 | 171 | 0.9 | 1.7 | 0.00 | 0.00 | 0.00 | 45 | 1016.2 |
| 20260504023706 | 60 | 191 | 0.9 | 1.7 | 0.00 | 0.00 | 0.00 | 44 | 1016.3 |
| 20260504023205 | 60 | 201 | 0.9 | 1.7 | 0.00 | 0.00 | 0.00 | 44 | 1016.2 |
| 20260504022635 | 60 | 201 | 1.7 | 1.7 | 0.00 | 0.00 | 0.00 | 44 | 1016.0 |
| 20260504022106 | 60 | 218 | 1.7 | 2.6 | 0.00 | 0.00 | 0.00 | 44 | 1016.2 |
| 20260504021605 | 60 | 192 | 0.9 | 1.7 | 0.00 | 0.00 | 0.00 | 43 | 1015.9 |
| 20260504021105 | 60 | 209 | 0.9 | 2.6 | 0.00 | 0.00 | 0.00 | 43 | 1015.6 |
| 20260504020006 | 60 | 185 | 0.9 | 1.7 | 0.00 | 0.00 | 0.00 | 43 | 1015.3 |
| 20260504015505 | 60 | 202 | 0.9 | 2.6 | 0.00 | 0.00 | 0.00 | 44 | 1015.2 |
| 20260504015006 | 60 | 197 | 1.7 | 1.7 | 0.00 | 0.00 | 0.00 | 43 | 1015.2 |
| 20260504014505 | 61 | 190 | 0.9 | 1.7 | 0.00 | 0.00 | 0.00 | 44 | 1015.1 |
| 20260504013936 | 61 | 187 | 0.9 | 1.7 | 0.00 | 0.00 | 0.00 | 44 | 1015.2 |
| 20260504013436 | 61 | 183 | 0.9 | 1.7 | 0.00 | 0.00 | 0.00 | 43 | 1015.1 |
| 20260504012935 | 61 | 196 | 0.9 | 1.7 | 0.00 | 0.00 | 0.00 | 43 | 1014.9 |
| 20260504012436 | 61 | 191 | 0.9 | 1.7 | 0.00 | 0.00 | 0.00 | 43 | 1015.2 |
| 20260504011936 | 62 | 210 | 0.9 | 1.7 | 0.00 | 0.00 | 0.00 | 42 | 1015.2 |
| 20260504010906 | 62 | 207 | 0.9 | 2.6 | 0.00 | 0.00 | 0.00 | 42 | 1015.2 |
| 20260504010405 | 62 | 230 | 1.7 | 2.6 | 0.00 | 0.00 | 0.00 | 43 | 1015.2 |
| 20260504005836 | 63 | 237 | 0.9 | 1.7 | 0.00 | 0.00 | 0.00 | 43 | 1015.2 |
| 20260504005336 | 63 | 230 | 1.7 | 1.7 | 0.00 | 0.00 | 0.00 | 43 | 1015.2 |
| 20260504004805 | 64 | 223 | 1.7 | 1.7 | 0.00 | 0.00 | 0.00 | 42 | 1015.1 |
| 20260504004305 | 64 | 189 | 0.9 | 1.7 | 0.00 | 0.00 | 0.00 | 41 | 1014.7 |
| 20260504003807 | 65 | 184 | 0.9 | 1.7 | 0.00 | 0.00 | 0.00 | 40 | 1014.9 |
| 20260504003237 | 66 | 189 | 0.9 | 2.6 | 0.00 | 0.00 | 0.00 | 39 | 1014.9 |
| 20260504002736 | 66 | 172 | 0.9 | 1.7 | 0.00 | 0.00 | 0.00 | 38 | 1014.9 |
| 20260504002207 | 67 | 198 | 0.9 | 1.7 | 0.00 | 0.00 | 0.00 | 37 | 1015.1 |
| 20260504001706 | 67 | 200 | 0.9 | 1.7 | 0.00 | 0.00 | 0.00 | 37 | 1015.0 |
| 20260504001206 | 68 | 197 | 0.9 | 1.7 | 0.00 | 0.00 | 0.00 | 37 | 1014.7 |
| 20260504000636 | 68 | 202 | 0.9 | 1.7 | 0.00 | 0.00 | 0.00 | 35 | 1014.9 |
| 20260504000107 | 69 | 198 | 0.9 | 1.7 | 0.00 | 0.00 | 0.00 | 35 | 1014.8 |
| 20260503235607 | 69 | 231 | 1.7 | 2.6 | 0.00 | 0.00 | 0.00 | 34 | 1014.9 |
| 20260503235106 | 70 | 192 | 0.9 | 1.7 | 0.00 | 0.00 | 0.00 | 34 | 1015.0 |
| 20260503234537 | 70 | 197 | 0.9 | 1.7 | 0.00 | 0.00 | 0.00 | 33 | 1015.2 |
| 20260503234038 | 70 | 195 | 0.9 | 1.7 | 0.00 | 0.00 | 0.00 | 33 | 1015.2 |
| 20260503233536 | 70 | 222 | 0.9 | 2.6 | 0.00 | 0.00 | 0.00 | 33 | 1015.0 |
| 20260503233007 | 70 | 281 | 0.9 | 2.6 | 0.00 | 0.00 | 0.00 | 32 | 1015.2 |
| 20260503232505 | 70 | 247 | 2.6 | 4.3 | 0.00 | 0.00 | 0.00 | 32 | 1015.3 |
| 20260503230936 | 71 | 230 | 1.7 | 2.6 | 0.00 | 0.00 | 0.00 | 32 | 1015.1 |
| 20260503230406 | 71 | 230 | 1.7 | 4.3 | 0.00 | 0.01 | 0.00 | 32 | 1015.2 |
| 20260503225835 | 70 | 229 | 0.9 | 2.6 | 0.00 | 0.01 | 0.00 | 32 | 1015.2 |
| 20260503225335 | 70 | 257 | 1.7 | 4.3 | 0.00 | 0.01 | 0.00 | 32 | 1015.2 |
| 20260503224806 | 71 | 258 | 1.7 | 5.2 | 0.00 | 0.01 | 0.00 | 32 | 1015.2 |
| 20260503224305 | 71 | 217 | 1.7 | 4.3 | 0.00 | 0.01 | 0.00 | 31 | 1015.2 |
| 20260503223736 | 72 | 254 | 1.7 | 4.3 | 0.00 | 0.01 | 0.00 | 31 | 1015.5 |
| 20260503223237 | 71 | 218 | 1.7 | 2.6 | 0.00 | 0.01 | 0.00 | 32 | 1015.5 |
| 20260503222705 | 71 | 235 | 1.7 | 4.3 | 0.00 | 0.02 | 0.00 | 31 | 1015.6 |
| 20260503222206 | 71 | 336 | 2.6 | 4.3 | 0.00 | 0.02 | 0.00 | 31 | 1015.6 |
| 20260503221705 | 71 | 247 | 2.6 | 4.3 | 0.00 | 0.02 | 0.00 | 31 | 1015.7 |
| 20260503220635 | 71 | 311 | 2.6 | 5.2 | 0.00 | 0.02 | 0.00 | 29 | 1015.9 |
| 20260503220105 | 71 | 281 | 0.9 | 4.3 | 0.00 | 0.02 | 0.00 | 31 | 1016.2 |
| 20260503215537 | 71 | 262 | 2.6 | 6.1 | 0.00 | 0.02 | 0.00 | 30 | 1016.0 |
| 20260503215036 | 71 | 247 | 1.7 | 4.3 | 0.00 | 0.02 | 0.00 | 30 | 1016.2 |
| 20260503214536 | 70 | 247 | 2.6 | 4.3 | 0.00 | 0.02 | 0.00 | 29 | 1016.3 |
| 20260503214009 | 71 | 312 | 2.6 | 6.1 | 0.00 | 0.02 | 0.00 | 29 | 1016.3 |
| 20260503213436 | 71 | 325 | 1.7 | 5.2 | 0.00 | 0.02 | 0.00 | 29 | 1016.3 |
| 20260503212906 | 71 | 241 | 1.7 | 2.6 | 0.00 | 0.02 | 0.00 | 30 | 1016.6 |
| 20260503212405 | 71 | 228 | 1.7 | 4.3 | 0.00 | 0.02 | 0.00 | 31 | 1016.3 |
| 20260503211835 | 71 | 224 | 1.7 | 2.6 | 0.00 | 0.02 | 0.00 | 32 | 1016.6 |
| 20260503211336 | 71 | 255 | 1.7 | 2.6 | 0.00 | 0.02 | 0.00 | 31 | 1016.6 |
| 20260503210805 | 71 | 260 | 1.7 | 2.6 | 0.00 | 0.02 | 0.00 | 33 | 1016.6 |
| 20260503210306 | 71 | 274 | 4.3 | 6.1 | 0.00 | 0.02 | 0.00 | 31 | 1016.9 |
| 20260503205736 | 70 | 191 | 0.9 | 2.6 | 0.00 | 0.02 | 0.00 | 33 | 1016.9 |
| 20260503205236 | 70 | 255 | 2.6 | 5.2 | 0.00 | 0.02 | 0.00 | 31 | 1016.9 |
| 20260503204706 | 70 | 325 | 2.6 | 4.3 | 0.00 | 0.02 | 0.00 | 32 | 1017.0 |
| 20260503204136 | 71 | 210 | 1.7 | 4.3 | 0.00 | 0.02 | 0.00 | 30 | 1016.9 |
| 20260503203636 | 70 | 320 | 0.9 | 2.6 | 0.00 | 0.02 | 0.00 | 32 | 1017.3 |
| 20260503203135 | 70 | 335 | 2.6 | 7.0 | 0.00 | 0.02 | 0.00 | 31 | 1017.3 |
| 20260503202605 | 69 | 275 | 0.9 | 2.6 | 0.00 | 0.02 | 0.00 | 31 | 1017.4 |
| 20260503202036 | 69 | 271 | 1.7 | 6.1 | 0.00 | 0.02 | 0.00 | 30 | 1017.4 |
| 20260503201506 | 69 | 268 | 1.7 | 2.6 | 0.00 | 0.02 | 0.00 | 31 | 1017.7 |
| 20260503200435 | 68 | 6 | 1.7 | 4.3 | 0.00 | 0.02 | 0.00 | 31 | 1017.9 |
| 20260503195906 | 68 | 309 | 1.7 | 4.3 | 0.00 | 0.02 | 0.00 | 31 | 1018.2 |
| 20260503195406 | 68 | 308 | 5.2 | 8.7 | 0.00 | 0.02 | 0.00 | 30 | 1017.9 |
| 20260503194906 | 68 | 204 | 2.6 | 4.3 | 0.00 | 0.02 | 0.00 | 32 | 1018.3 |
| 20260503194335 | 68 | 55 | 1.7 | 4.3 | 0.00 | 0.02 | 0.00 | 31 | 1018.3 |
| 20260503194157 | 67 | 199 | 1.7 | 4.3 | 0.00 | 0.02 | 0.00 | 32 | 1018.4 |
| 20260503194001 | 67 | 199 | 1.7 | 4.3 | 0.00 | 0.02 | 0.00 | 32 | 1018.4 |
| 20260503193806 | 67 | 199 | 1.7 | 4.3 | 0.00 | 0.02 | 0.00 | 32 | 1018.4 |
| 20260503193417 | 68 | 305 | 4.3 | 7.8 | 0.00 | 0.02 | 0.00 | 33 | 1018.6 |
| 20260503193236 | 68 | 305 | 4.3 | 7.8 | 0.00 | 0.02 | 0.00 | 33 | 1018.6 |
| 20260503192706 | 67 | 209 | 1.7 | 2.6 | 0.00 | 0.02 | 0.00 | 33 | 1018.6 |
| 20260503192205 | 67 | 296 | 1.7 | 4.3 | 0.00 | 0.02 | 0.00 | 32 | 1018.6 |
| 20260503191136 | 67 | 317 | 1.7 | 2.6 | 0.00 | 0.02 | 0.00 | 35 | 1018.8 |
| 20260503190606 | 67 | 239 | 2.6 | 4.3 | 0.00 | 0.02 | 0.00 | 33 | 1019.0 |
| 20260503190106 | 67 | 253 | 2.6 | 6.1 | 0.00 | 0.02 | 0.00 | 34 | 1018.7 |
| 20260503185536 | 67 | 247 | 1.7 | 4.3 | 0.00 | 0.02 | 0.00 | 35 | 1019.1 |
| 20260503185036 | 66 | 219 | 0.9 | 1.7 | 0.00 | 0.02 | 0.00 | 35 | 1019.3 |
| 20260503184535 | 66 | 240 | 1.7 | 4.3 | 0.00 | 0.02 | 0.00 | 32 | 1019.2 |
| 20260503184006 | 67 | 318 | 1.7 | 4.3 | 0.00 | 0.02 | 0.00 | 32 | 1019.3 |
| 20260503183505 | 66 | 289 | 0.9 | 2.6 | 0.00 | 0.02 | 0.00 | 34 | 1019.3 |
| 20260503182935 | 65 | 235 | 2.6 | 4.3 | 0.00 | 0.02 | 0.00 | 33 | 1019.6 |
| 20260503182435 | 65 | 10 | 1.7 | 4.3 | 0.00 | 0.02 | 0.00 | 31 | 1019.5 |
| 20260503181905 | 65 | 237 | 0.9 | 1.7 | 0.00 | 0.02 | 0.00 | 32 | 1019.6 |
| 20260503181405 | 64 | 249 | 2.6 | 5.2 | 0.00 | 0.02 | 0.00 | 31 | 1019.6 |
| 20260503180836 | 64 | 21 | 1.7 | 2.6 | 0.00 | 0.02 | 0.00 | 34 | 1019.6 |
| 20260503180335 | 64 | 50 | 1.7 | 4.3 | 0.00 | 0.02 | 0.00 | 33 | 1019.7 |
| 20260503175805 | 64 | 327 | 2.6 | 5.2 | 0.00 | 0.02 | 0.00 | 34 | 1020.0 |
| 20260503175237 | 63 | 49 | 0.9 | 1.7 | 0.00 | 0.02 | 0.00 | 34 | 1020.0 |
| 20260503174736 | 64 | 311 | 0.9 | 2.6 | 0.00 | 0.02 | 0.00 | 34 | 1020.0 |
| 20260503174206 | 63 | 181 | 1.7 | 4.3 | 0.00 | 0.02 | 0.00 | 37 | 1020.3 |
| 20260503173706 | 63 | 251 | 1.7 | 2.6 | 0.00 | 0.02 | 0.00 | 36 | 1020.5 |
| 20260503173206 | 62 | 246 | 2.6 | 5.2 | 0.00 | 0.02 | 0.00 | 38 | 1020.2 |
| 20260503172635 | 62 | 286 | 1.7 | 2.6 | 0.00 | 0.02 | 0.00 | 36 | 1020.4 |
| 20260503172106 | 62 | 325 | 0.9 | 4.3 | 0.00 | 0.02 | 0.00 | 38 | 1020.7 |
| 20260503171535 | 62 | 51 | 4.3 | 6.1 | 0.00 | 0.02 | 0.00 | 36 | 1020.7 |
| 20260503171035 | 61 | 359 | 0.9 | 1.7 | 0.00 | 0.02 | 0.00 | 36 | 1021.0 |
| 20260503170505 | 61 | 69 | 1.7 | 1.7 | 0.00 | 0.02 | 0.00 | 40 | 1021.0 |
| 20260503160106 | 59 | 126 | 0.9 | 0.9 | 0.00 | 0.02 | 0.00 | 40 | 1021.8 |
| 20260503150836 | 57 | 98 | 0.0 | 0.9 | 0.00 | 0.02 | 0.00 | 41 | 1022.1 |
| 20260503150335 | 57 | 207 | 0.9 | 1.7 | 0.00 | 0.02 | 0.00 | 41 | 1022.3 |
| 20260503131036 | 47 | 126 | 0.9 | 2.6 | 0.00 | 0.02 | 0.00 | 82 | 1022.5 |
| 20260503110437 | 42 | 105 | 0.9 | 1.7 | 0.00 | 0.02 | 0.00 | 92 | 1021.7 |